DMSP 5D-2 F13 DEB, 42262

Orbit data source: Space-Track

DMSP 5D-2 F13 DEB, 42262 is space debris in SSO originally from a launch on Fri, 24 Mar 1995 UTC launched from the Air Force Western Test Range (AFWTR). Debris objects in space refer to the collection of defunct objects orbiting the Earth. Examples of debris include non-operational satellites, rocket bodies, and fragments generated from explosions, collisions, or faulty payload assembly.

Loading next visibility...
Identifier
42262, 1995-015GC
Orbit
SSO
Country
Flag of USUS
Related business
Manufacturer
Unknown
Mission
Spacecraft
Bus & Motor
Unknown
Mass
Unknown
Launch date (UTC)
1995-03-24 (31 years ago)
Launch vehicle
Unknown
Launch site
Air Force Western Test Range (AFWTR)
Object type
Payload
Rocket body
Debris
Shape & HBR
Unknown shape, 0.1 m
Radar Cross Section
Medium (>0.1 m² and <1 m²)

Expand to show TLE details & history
Last TLE update: 7 hours ago

TLE from 7 hours ago
0 DMSP 5D-2 F13 DEB
1 42262U 95015GC  26257.16788879  .00010499  00000-0  15065-2 0  9994
2 42262  98.5103 332.4510 0024511 103.4706 256.9236 14.76487692599501
Epoch: 2026-09-14T04:01Z
TLE epoch observation values (Epoch: 2026-09-14T04:01:45.591Z)
Latitude
Longitude
-81.14103°
Altitude
647.364 km
Speed
7.532 km/s
True Right ascension
22h 09m 48s
True Declination
0° 00' 00"
Sunlit
Object was in full shadow at epoch
Visualization orbit readout
Latitude
Unknown
Longitude
Unknown
Altitude
Unknown
Speed
Unknown
Apparent Right ascension
Unknown
Apparent Declination
Unknown
Sunlit
N/A
Visualization observer readout
Local Sidereal Time
03:33:57
Azimuth
Unknown
Elevation
Unknown
Doppler factor
Unknown
Orbital elements
Apogee altitude
654.703 km
Perigee altitude
620.311 km
Semi-major axis
7,015.644 km
Eccentricity
0.00245
Inclination
98.5103°
RAAN
332.451°
Arg. of periapsis
103.4706°
True anomaly
256.6502°
Mean anomaly
256.9236°
Eccentric anomaly
256.78688°
Mean motion
3.69353 °/min
Orbital period
97.47 mins
BSTAR
0.0015065
Loading maneuver chart data...
Computing Atmospheric mass density...

Documentation

Showing up to 5 results
|